Weather History for Charlotte, MI

Change the Weather History Date:

Wednesday, November 21, 2012

  Actual Average (KLAN) Record (KLAN)
Temperature  
Mean Temperature 42 °F 37 °F  
Max Temperature 56 °F 44 °F 69 °F (1913)
Min Temperature 28 °F 31 °F -4 °F (1880)
Degree Days  
Heating Degree Days 23 28  
Month to date heating degree days 497  
Since 1 July heating degree days 1147  
Cooling Degree Days 0 0  
Month to date cooling degree days 0  
Year to date cooling degree days 625  
Moisture  
Dew Point 39 °F    
Average Humidity 92    
Maximum Humidity 100    
Minimum Humidity 64    
Precipitation  
Precipitation 0.00 in 0.09 in 0.89 in (2007)
Month to date precipitation 2.00  
Year to date precipitation 29.12  
Snow  
Snow 0.00 in 0.10 in 3.50 in (1928)
Month to date snowfall 1.6  
Since 1 July snowfall 2.0  
Since 1 September snowfall 2.0  
Snow Depth -    
Sea Level Pressure  
Sea Level Pressure 30.17 in    
Wind  
Wind Speed 2 mph (SSW)    
Max Wind Speed 9 mph    
Max Gust Speed -    
Visibility 4 miles    
Events Fog    
T = Trace of Precipitation, MM = Missing Value Source: NWS Daily Summary

Daily Weather History Graph

Daily Weather History Graph

Search for Another Location

Airport:

Trip Planner

Search our weather history database for the weather conditions in past years. The results will help you decide how hot, cold, wet, or windy it might be!

Date:

Astronomy

Nov. 21, 2012 Rise Set
Actual Time 7:38 AM EST 5:11 PM EST
Civil Twilight 7:07 AM EST 5:42 PM EST
Nautical Twilight 6:33 AM EST 6:16 PM EST
Astronomical Twilight 5:59 AM EST 6:50 PM EST
Moon 1:35 PM EST (11/21) 12:48 AM EST (11/21)
Length of Visible Light 10h 34m
Length of Day
9h 33m
First Quarter, 61% of the Moon is Illuminated
Nov 21
First Quarter
Nov 28
Full
Dec 6
Last Quarter
Dec 13
New
Dec 20
First Quarter

Hourly Weather History & Observations

Time (EST) Temp. Windchill Dew Point Humidity Pressure Visibility Wind Dir Wind Speed Gust Speed Precip Events Conditions
12:15 AM 36.5 °F - 36.3 °F 99% 30.14 in 0.2 mi Calm Calm - N/A Fog Fog
12:35 AM 33.6 °F - 33.1 °F 98% 30.14 in 0.2 mi Calm Calm - N/A Fog Fog
12:55 AM 34.0 °F - 33.6 °F 99% 30.14 in 0.5 mi Calm Calm - N/A Fog Fog
1:15 AM 32.4 °F - 32.2 °F 99% 30.15 in 0.2 mi Calm Calm - N/A Fog Fog
1:35 AM 34.2 °F - 33.8 °F 99% 30.14 in 0.5 mi Calm Calm - N/A Fog Fog
1:55 AM 32.4 °F - 32.4 °F 100% 30.15 in 0.2 mi Calm Calm - N/A Fog Fog
2:15 AM 32.7 °F - 32.5 °F 99% 30.15 in 0.2 mi Calm Calm - N/A Fog Fog
2:35 AM 31.5 °F - 31.5 °F 100% 30.16 in 0.2 mi Calm Calm - N/A Fog Light Freezing Fog
2:55 AM 31.6 °F - 31.5 °F 99% 30.16 in 1.2 mi Calm Calm - N/A   Mist
3:15 AM 31.6 °F - 31.6 °F 100% 30.16 in 3.0 mi Calm Calm - N/A   Clear
3:35 AM 32.0 °F - 32.0 °F 100% 30.17 in 1.8 mi Calm Calm - N/A   Mist
3:56 AM 30.2 °F - 30.2 °F 100% 30.16 in 4.0 mi Calm Calm - N/A   Clear
4:12 AM 31.3 °F - 31.3 °F 100% 30.17 in 0.2 mi Calm Calm - N/A Fog Light Freezing Fog
4:36 AM 30.2 °F - 30.2 °F 100% 30.15 in 0.5 mi Calm Calm - N/A Fog Light Freezing Fog
4:56 AM 32.0 °F - 32.0 °F 100% 30.16 in 0.2 mi Calm Calm - N/A Fog Fog
5:16 AM 30.2 °F - 30.2 °F 100% 30.16 in 0.2 mi Calm Calm - N/A Fog Light Freezing Fog
5:21 AM 29.8 °F - 29.8 °F 100% 30.16 in 0.2 mi Calm Calm - N/A Fog Light Freezing Fog
5:36 AM 29.7 °F - 29.7 °F 100% 30.16 in 0.2 mi Calm Calm - N/A Fog Light Freezing Fog
5:55 AM 30.0 °F - 30.0 °F 100% 30.16 in 0.2 mi Calm Calm - N/A Fog Light Freezing Fog
6:15 AM 29.5 °F - 29.5 °F 100% 30.17 in 0.2 mi Calm Calm - N/A Fog Light Freezing Fog
6:35 AM 28.8 °F - 28.8 °F 100% 30.18 in 0.2 mi Calm Calm - N/A Fog Light Freezing Fog
6:55 AM 29.3 °F - 29.3 °F 100% 30.18 in 0.2 mi Calm Calm - N/A Fog Light Freezing Fog
7:15 AM 29.8 °F - 29.8 °F 100% 30.20 in 0.2 mi Calm Calm - N/A Fog Light Freezing Fog
7:35 AM 28.4 °F - 28.4 °F 100% 30.19 in 0.2 mi Calm Calm - N/A Fog Light Freezing Fog
7:55 AM 28.8 °F - 28.8 °F 100% 30.20 in 0.5 mi Calm Calm - N/A Fog Light Freezing Fog
8:15 AM 29.1 °F - 29.1 °F 100% 30.20 in 0.2 mi Calm Calm - N/A Fog Light Freezing Fog
8:35 AM 30.6 °F - 30.6 °F 100% 30.21 in 0.2 mi Calm Calm - N/A Fog Light Freezing Fog
8:36 AM 30.6 °F - 30.6 °F 100% 30.21 in 0.2 mi Calm Calm - N/A Fog Light Freezing Fog
9:16 AM 32.0 °F - 32.0 °F 100% 30.21 in 0.2 mi Calm Calm - N/A Fog Fog
9:36 AM 33.8 °F - 33.8 °F 100% 30.21 in 0.2 mi Calm Calm - N/A Fog Fog
9:56 AM 35.6 °F - 35.6 °F 100% 30.21 in 0.2 mi Calm Calm - N/A Fog Fog
10:16 AM 41.0 °F - 41.0 °F 100% 30.21 in 1.5 mi Calm Calm - N/A   Mostly Cloudy
10:38 AM 44.6 °F - 44.6 °F 100% 30.22 in 4.0 mi Calm Calm - N/A   Clear
10:56 AM 46.4 °F 45.2 °F 46.4 °F 100% 30.22 in 4.0 mi SW 3.5 mph - N/A   Clear
11:16 AM 48.2 °F - 46.4 °F 93% 30.22 in 5.0 mi West 3.5 mph - N/A   Clear
11:36 AM 50.0 °F - 48.2 °F 94% 30.21 in 5.0 mi WSW 3.5 mph - N/A   Clear
11:56 AM 50.0 °F - 48.2 °F 94% 30.20 in 5.0 mi West 3.5 mph - N/A   Clear
12:16 PM 51.8 °F - 50.0 °F 94% 30.20 in 5.0 mi West 5.8 mph - N/A   Clear
12:35 PM 52.7 °F - 50.0 °F 91% 30.20 in 7.0 mi SW 5.8 mph - N/A   Clear
12:55 PM 53.4 °F - 50.2 °F 89% 30.18 in 7.0 mi WSW 4.6 mph - N/A   Clear
1:15 PM 53.1 °F - 49.5 °F 88% 30.19 in 10.0 mi SSW 6.9 mph - N/A   Clear
1:35 PM 54.9 °F - 46.9 °F 75% 30.18 in 10.0 mi SSW 6.9 mph - N/A   Clear
1:55 PM 55.4 °F - 46.4 °F 72% 30.18 in 10.0 mi SW 4.6 mph - N/A   Clear
2:15 PM 55.8 °F - 45.5 °F 68% 30.17 in 10.0 mi SSW 4.6 mph - N/A   Clear
2:36 PM 56.1 °F - 44.2 °F 64% 30.16 in 10.0 mi SSW 5.8 mph - N/A   Clear
2:55 PM 55.8 °F - 44.6 °F 66% 30.15 in 10.0 mi South 9.2 mph - N/A   Clear
3:15 PM 55.6 °F - 44.8 °F 67% 30.15 in 7.0 mi South 5.8 mph - N/A   Clear
3:35 PM 55.6 °F - 45.1 °F 68% 30.15 in 10.0 mi South 5.8 mph - N/A   Clear
3:55 PM 55.2 °F - 45.5 °F 70% 30.16 in 7.0 mi South 4.6 mph - N/A   Clear
4:15 PM 55.0 °F - 45.0 °F 69% 30.15 in 10.0 mi SW 5.8 mph - N/A   Clear
4:35 PM 54.0 °F - 44.8 °F 71% 30.15 in 7.0 mi SSW 5.8 mph - N/A   Clear
4:55 PM 52.7 °F - 44.4 °F 73% 30.15 in 10.0 mi SSW 5.8 mph - N/A   Clear
5:15 PM 50.9 °F - 43.9 °F 77% 30.15 in 10.0 mi SSW 6.9 mph - N/A   Clear
5:35 PM 47.3 °F - 42.1 °F 82% 30.15 in 7.0 mi South 5.8 mph - N/A   Clear
5:55 PM 46.4 °F 43.5 °F 42.4 °F 86% 30.15 in 7.0 mi South 5.8 mph - N/A   Clear
6:15 PM 45.5 °F 42.5 °F 42.1 °F 88% 30.15 in 7.0 mi South 5.8 mph - N/A   Clear
6:35 PM 45.0 °F 42.6 °F 41.7 °F 88% 30.15 in 7.0 mi SW 4.6 mph - N/A   Clear
6:55 PM 44.6 °F 42.2 °F 41.7 °F 90% 30.15 in 7.0 mi South 4.6 mph - N/A   Clear
7:15 PM 44.1 °F 40.8 °F 41.9 °F 92% 30.14 in 5.0 mi South 5.8 mph - N/A   Clear
7:35 PM 43.7 °F 41.1 °F 41.7 °F 93% 30.14 in 5.0 mi SSW 4.6 mph - N/A   Clear
7:55 PM 43.3 °F 39.9 °F 41.4 °F 93% 30.13 in 5.0 mi South 5.8 mph - N/A   Clear
8:15 PM 43.2 °F 41.5 °F 41.7 °F 95% 30.14 in 4.0 mi SSW 3.5 mph - N/A   Clear
8:35 PM 43.7 °F 42.1 °F 41.9 °F 93% 30.14 in 4.0 mi SSW 3.5 mph - N/A   Clear
8:55 PM 42.6 °F 39.9 °F 41.0 °F 94% 30.14 in 4.0 mi South 4.6 mph - N/A   Clear
9:15 PM 42.4 °F 40.7 °F 41.2 °F 95% 30.14 in 3.0 mi South 3.5 mph - N/A   Clear
9:36 PM 42.6 °F 39.9 °F 41.2 °F 95% 30.14 in 3.0 mi South 4.6 mph - N/A   Clear
9:55 PM 41.9 °F 38.2 °F 40.8 °F 96% 30.14 in 2.5 mi SSW 5.8 mph - N/A   Clear
10:16 PM 41.9 °F 40.0 °F 40.8 °F 96% 30.14 in 2.5 mi SSW 3.5 mph - N/A   Clear
10:35 PM 41.7 °F 38.8 °F 40.8 °F 97% 30.13 in 2.0 mi South 4.6 mph - N/A   Clear
10:56 PM 41.2 °F 39.2 °F 40.3 °F 97% 30.13 in 2.0 mi SSW 3.5 mph - N/A   Clear
11:15 PM 41.4 °F 36.8 °F 40.8 °F 98% 30.13 in 2.0 mi South 6.9 mph - N/A   Clear
11:35 PM 41.9 °F 38.2 °F 41.2 °F 97% 30.13 in 2.0 mi South 5.8 mph - N/A   Clear
11:56 PM 42.3 °F 37.9 °F 41.7 °F 98% 30.13 in 2.0 mi South 6.9 mph - N/A   Clear